• în Republica Moldova
  • Lista ţărilor
  • Pe 7 zile
  • Temperatura apei
  • Hartă satelitară
  • Meteo pe hartă
  • Widget-uri
  • user-avatar
    Intrare

    Meteo pe oră la Naftalan

    Astăzi, 22 August, Marţi

    Timp Temperatura Precipitaţii Vânt Presiune Umiditate
    00:00 +29°C° 0 mm 3 m/s 758 mmHg 62%
    01:00 +28°C° 0 mm 2 m/s 758 mmHg 62%
    02:00 +28°C° 0 mm 2 m/s 758 mmHg 63%
    03:00 +28°C° 0 mm 2 m/s 758 mmHg 61%
    04:00 +28°C° 0 mm 2 m/s 758 mmHg 58%
    05:00 +28°C° 0 mm 2 m/s 758 mmHg 56%
    06:00 +29°C° 0 mm 2 m/s 758 mmHg 54%
    07:00 +31°C° 0 mm 2 m/s 758 mmHg 47%
    08:00 +34°C° 0 mm 2 m/s 758 mmHg 40%
    09:00 +36°C° 0 mm 2 m/s 758 mmHg 32%
    10:00 +37°C° 0 mm 3 m/s 758 mmHg 30%
    11:00 +39°C° 0 mm 3 m/s 758 mmHg 27%
    12:00 +41°C° 0 mm 4 m/s 758 mmHg 25%
    13:00 +41°C° 0 mm 5 m/s 758 mmHg 25%
    14:00 +41°C° 0 mm 5 m/s 757 mmHg 26%
    15:00 +41°C° 0 mm 6 m/s 757 mmHg 26%
    16:00 +39°C° 0 mm 5 m/s 757 mmHg 31%
    17:00 +36°C° 0 mm 5 m/s 757 mmHg 35%
    18:00 +34°C° 0 mm 5 m/s 757 mmHg 40%
    19:00 +33°C° 0 mm 4 m/s 757 mmHg 46%
    20:00 +31°C° 0 mm 3 m/s 758 mmHg 52%
    21:00 +29°C° 0 mm 3 m/s 758 mmHg 58%
    22:00 +29°C° 0 mm 3 m/s 758 mmHg 57%
    23:00 +29°C° 0 mm 2 m/s 758 mmHg 57%

    Mâine, 23 August, Miercuri

    Timp Temperatura Precipitaţii Vânt Presiune Umiditate
    00:00 +28°C° 0 mm 2 m/s 758 mmHg 56%
    01:00 +28°C° 0 mm 2 m/s 758 mmHg 54%
    02:00 +28°C° 0 mm 2 m/s 758 mmHg 53%
    03:00 +27°C° 0 mm 2 m/s 758 mmHg 51%
    04:00 +28°C° 0 mm 2 m/s 758 mmHg 50%
    05:00 +28°C° 0 mm 3 m/s 758 mmHg 50%
    06:00 +28°C° 0 mm 3 m/s 759 mmHg 50%
    07:00 +31°C° 0 mm 3 m/s 759 mmHg 44%
    08:00 +34°C° 0 mm 4 m/s 759 mmHg 38%
    09:00 +36°C° 0 mm 4 m/s 759 mmHg 33%
    10:00 +37°C° 0 mm 5 m/s 759 mmHg 30%
    11:00 +39°C° 0 mm 5 m/s 759 mmHg 28%
    12:00 +40°C° 0 mm 6 m/s 759 mmHg 26%
    13:00 +40°C° 0 mm 6 m/s 759 mmHg 27%
    14:00 +39°C° 0 mm 7 m/s 758 mmHg 27%
    15:00 +39°C° 0 mm 7 m/s 758 mmHg 28%
    16:00 +38°C° 0 mm 6 m/s 758 mmHg 31%
    17:00 +35°C° 0 mm 5 m/s 758 mmHg 35%
    18:00 +34°C° 0 mm 5 m/s 758 mmHg 38%
    19:00 +32°C° 0 mm 4 m/s 759 mmHg 44%
    20:00 +30°C° 0 mm 3 m/s 759 mmHg 50%
    21:00 +29°C° 0 mm 3 m/s 759 mmHg 57%
    22:00 +29°C° 0 mm 3 m/s 760 mmHg 55%
    23:00 +28°C° 0 mm 3 m/s 760 mmHg 53%

    Poimâine, 24 August, Joi

    Timp Temperatura Precipitaţii Vânt Presiune Umiditate
    00:00 +28°C° 0 mm 3 m/s 760 mmHg 52%
    01:00 +28°C° 0 mm 3 m/s 760 mmHg 51%
    02:00 +28°C° 0 mm 3 m/s 760 mmHg 49%
    03:00 +27°C° 0 mm 3 m/s 760 mmHg 48%
    04:00 +27°C° 0 mm 3 m/s 761 mmHg 49%
    05:00 +27°C° 0 mm 3 m/s 761 mmHg 51%
    06:00 +28°C° 0 mm 3 m/s 762 mmHg 52%
    07:00 +30°C° 0 mm 3 m/s 762 mmHg 45%
    08:00 +33°C° 0 mm 3 m/s 762 mmHg 37%
    09:00 +36°C° 0 mm 3 m/s 763 mmHg 30%
    10:00 +37°C° 0 mm 4 m/s 763 mmHg 26%
    11:00 +39°C° 0 mm 5 m/s 762 mmHg 22%
    12:00 +40°C° 0 mm 5 m/s 762 mmHg 18%
    13:00 +40°C° 0 mm 6 m/s 762 mmHg 18%
    14:00 +40°C° 0 mm 6 m/s 762 mmHg 18%
    15:00 +39°C° 0 mm 6 m/s 761 mmHg 18%
    16:00 +37°C° 0 mm 5 m/s 761 mmHg 21%
    17:00 +35°C° 0 mm 5 m/s 761 mmHg 25%
    18:00 +33°C° 0 mm 4 m/s 762 mmHg 29%
    19:00 +32°C° 0 mm 4 m/s 762 mmHg 37%
    20:00 +29°C° 0 mm 3 m/s 762 mmHg 45%
    21:00 +28°C° 0 mm 3 m/s 763 mmHg 53%
    22:00 +27°C° 0 mm 3 m/s 763 mmHg 53%
    23:00 +27°C° 0 mm 3 m/s 763 mmHg 54%

    25 August, Vineri

    Timp Temperatura Precipitaţii Vânt Presiune Umiditate
    00:00 +27°C° 0 mm 2 m/s 763 mmHg 54%
    01:00 +26°C° 0 mm 3 m/s 763 mmHg 52%
    02:00 +26°C° 0 mm 3 m/s 763 mmHg 51%
    03:00 +26°C° 0 mm 3 m/s 763 mmHg 49%
    04:00 +26°C° 0 mm 3 m/s 763 mmHg 47%
    05:00 +26°C° 0 mm 3 m/s 763 mmHg 45%
    06:00 +26°C° 0 mm 3 m/s 763 mmHg 43%
    07:00 +29°C° 0 mm 3 m/s 763 mmHg 35%
    08:00 +31°C° 0 mm 3 m/s 763 mmHg 27%
    09:00 +34°C° 0 mm 4 m/s 764 mmHg 20%
    10:00 +36°C° 0 mm 4 m/s 763 mmHg 18%
    11:00 +37°C° 0 mm 4 m/s 763 mmHg 17%
    12:00 +40°C° 0 mm 5 m/s 762 mmHg 16%
    13:00 +39°C° 0 mm 5 m/s 762 mmHg 18%
    14:00 +39°C° 0 mm 6 m/s 762 mmHg 20%
    15:00 +39°C° 0 mm 6 m/s 761 mmHg 23%
    16:00 +36°C° 0 mm 6 m/s 762 mmHg 28%
    17:00 +35°C° 0 mm 5 m/s 762 mmHg 34%
    18:00 +33°C° 0 mm 5 m/s 762 mmHg 39%
    19:00 +32°C° 0 mm 4 m/s 762 mmHg 45%
    20:00 +29°C° 0 mm 4 m/s 762 mmHg 50%
    21:00 +28°C° 0 mm 3 m/s 763 mmHg 55%
    22:00 +28°C° 0 mm 3 m/s 763 mmHg 55%
    23:00 +27°C° 0 mm 4 m/s 762 mmHg 56%

    26 August, Sâmbătă

    Timp Temperatura Precipitaţii Vânt Presiune Umiditate
    00:00 +27°C° 0 mm 4 m/s 762 mmHg 56%
    01:00 +26°C° 0 mm 4 m/s 762 mmHg 56%
    02:00 +26°C° 0 mm 4 m/s 762 mmHg 56%
    03:00 +26°C° 0 mm 4 m/s 762 mmHg 56%
    04:00 +26°C° 0 mm 4 m/s 762 mmHg 56%
    05:00 +26°C° 0 mm 4 m/s 762 mmHg 56%
    06:00 +26°C° 0 mm 4 m/s 763 mmHg 55%
    07:00 +28°C° 0 mm 4 m/s 763 mmHg 45%
    08:00 +32°C° 0 mm 4 m/s 763 mmHg 35%
    09:00 +34°C° 0 mm 4 m/s 763 mmHg 24%
    10:00 +35°C° 0 mm 4 m/s 762 mmHg 21%
    11:00 +37°C° 0 mm 5 m/s 762 mmHg 18%
    12:00 +39°C° 0 mm 5 m/s 762 mmHg 14%
    13:00 +39°C° 0 mm 6 m/s 761 mmHg 16%
    14:00 +39°C° 0 mm 7 m/s 761 mmHg 17%
    15:00 +39°C° 0 mm 8 m/s 761 mmHg 19%
    16:00 +36°C° 0 mm 7 m/s 761 mmHg 23%
    17:00 +34°C° 0 mm 7 m/s 761 mmHg 27%
    18:00 +33°C° 0 mm 7 m/s 761 mmHg 32%
    19:00 +30°C° 0 mm 6 m/s 761 mmHg 37%
    20:00 +29°C° 0 mm 5 m/s 762 mmHg 42%
    21:00 +28°C° 0 mm 4 m/s 762 mmHg 46%
    22:00 +27°C° 0 mm 4 m/s 762 mmHg 49%
    23:00 +26°C° 0 mm 4 m/s 762 mmHg 51%

    27 August, Duminică

    Timp Temperatura Precipitaţii Vânt Presiune Umiditate
    00:00 +26°C° 0 mm 4 m/s 762 mmHg 53%
    01:00 +26°C° 0 mm 4 m/s 761 mmHg 54%
    02:00 +25°C° 0 mm 4 m/s 761 mmHg 54%
    03:00 +25°C° 0 mm 4 m/s 761 mmHg 55%
    04:00 +25°C° 0 mm 4 m/s 762 mmHg 54%
    05:00 +25°C° 0 mm 4 m/s 762 mmHg 53%
    06:00 +25°C° 0 mm 4 m/s 762 mmHg 52%
    07:00 +27°C° 0 mm 4 m/s 762 mmHg 44%
    08:00 +30°C° 0 mm 4 m/s 762 mmHg 36%
    09:00 +33°C° 0 mm 3 m/s 762 mmHg 29%
    10:00 +34°C° 0 mm 4 m/s 762 mmHg 26%
    11:00 +36°C° 0 mm 5 m/s 761 mmHg 22%
    12:00 +37°C° 0 mm 5 m/s 761 mmHg 19%
    13:00 +38°C° 0 mm 6 m/s 761 mmHg 21%
    14:00 +38°C° 0 mm 6 m/s 760 mmHg 23%
    15:00 +38°C° 0 mm 7 m/s 760 mmHg 24%
    16:00 +35°C° 0 mm 6 m/s 760 mmHg 29%
    17:00 +34°C° 0 mm 6 m/s 760 mmHg 33%
    18:00 +32°C° 0 mm 5 m/s 760 mmHg 38%
    19:00 +30°C° 0 mm 4 m/s 761 mmHg 44%
    20:00 +28°C° 0 mm 4 m/s 761 mmHg 50%
    21:00 +27°C° 0 mm 3 m/s 761 mmHg 56%
    22:00 +27°C° 0 mm 3 m/s 761 mmHg 57%
    23:00 +26°C° 0 mm 3 m/s 761 mmHg 59%
    Arată mai mult